This demonstration page uses our WeatherBlox Daily Observations layout. Learn more.

Left ArrowRight Arrow

36.19886, -115.1175

Hourly Observations for May 4, 2021

Temp ( °F °C ) Dew Point ( °F °C ) Humidity (%) Winds ( mph kmh ) Pressure ( in mb ) Visibility ( mi km ) Precip ( " mm )
12:53 am 00:53 Clear 69 20.6 12 -11.1 11 11 W 7 11 29.87 1012 10 16 N/A
1:53 am 01:53 Clear 67 19.4 12 -11.1 12 12 NW 6 9 29.87 1012 10 16 N/A
2:53 am 02:53 Clear 66 18.9 13 -10.6 13 13 WNW 6 9 29.88 1012 10 16 N/A
3:53 am 03:53 Clear 65 18.3 15 -9.4 14 14 N N/A 29.90 1012 10 16 N/A
4:53 am 04:53 Clear 67 19.4 11 -11.7 11 11 NW 9 15 29.90 1012 10 16 N/A
5:53 am 05:53 Sunny 64 17.8 11 -11.7 12 12 WNW 8 13 29.91 1013 10 16 N/A
6:53 am 06:53 Sunny 66 18.9 15 -9.4 14 14 W 6 9 29.93 1014 10 16 N/A
7:53 am 07:53 Sunny 72 22.2 16 -8.9 12 12 N N/A 29.94 1014 10 16 N/A
8:53 am 08:53 Sunny 75 23.9 15 -9.4 10 10 NW 8 13 29.95 1014 10 16 N/A
9:53 am 09:53 Sunny 78 25.6 16 -8.9 9 9 N N/A 29.94 1014 10 16 N/A
10:53 am 10:53 Sunny 80 26.7 16 -8.9 9 9 ESE 6 9 29.95 1014 10 16 N/A
11:53 am 11:53 Sunny 83 28.3 18 -7.8 9 9 E 6 9 29.93 1013 10 16 N/A
12:53 pm 12:53 Sunny 85 29.4 18 -7.8 8 8 ESE 9 15 29.90 1013 10 16 N/A
1:53 pm 13:53 Sunny 88 31.1 18 -7.8 7 7 VRB 3 6 29.88 1012 10 16 N/A
2:53 pm 14:53 Sunny 88 31.1 18 -7.8 7 7 N N/A 29.85 1011 10 16 N/A
3:53 pm 15:53 Sunny 90 32.2 17 -8.3 7 7 VRB 3 6 29.82 1010 10 16 N/A
4:53 pm 16:53 Sunny 90 32.2 16 -8.9 6 6 ESE 6 9 29.80 1009 10 16 N/A
5:53 pm 17:53 Sunny 91 32.8 15 -9.4 6 6 NNE 3 6 29.78 1009 10 16 N/A
6:53 pm 18:53 Sunny 89 31.7 16 -8.9 7 7 E 6 9 29.78 1009 10 16 N/A
7:53 pm 19:53 Clear 87 30.6 19 -7.2 8 8 SSW 7 11 29.79 1009 10 16 N/A
8:53 pm 20:53 Clear 83 28.3 19 -7.2 9 9 ESE 5 7 29.82 1010 10 16 N/A
9:53 pm 21:53 Clear 83 28.3 18 -7.8 9 9 N N/A 29.83 1010 10 16 N/A
10:53 pm 22:53 Clear 77 25 21 -6.1 12 12 NW 5 7 29.84 1010 10 16 N/A
11:53 pm 23:53 Clear 75 23.9 19 -7.2 12 12 WNW 7 11 29.84 1011 10 16 N/A

Powered by AerisWeather